Content
SEND FEEDBACK

Daily
Averages
Monthly
Summary
United States of America

RIMROCK, ARIZONA


Home > North America > United States > Arizona
Elevation: 1167 meters     Latitude: 34 40N     Longitude: 111 43W

WEATHER
 
SELECT A DAY
Number of Records: 130,071;   Date Range: 1/4/95 - 7/22/14
 
SHARE

PRINT THIS DATA

[ ← Previous Day ]
WEATHER ALMANAC - 18 JUNE, 2014
[ Next Day → ]
[ °F ]   °C
Weather ElementAverageHighLow
Temperature23.4 °C30 °C (1:35 pm)18 °C (4:55 am)
Dewpoint-1.7 °C0 °C (2:35 am)-4 °C (7:55 pm)
Humidity19.5 %30 % (4:55 am)13 % (1:35 pm)
Barometer1015.9 hPa1018.3 hPa (10:35 pm)1014.2 hPa (1:55 am)
Wind Speed17.9 km/h38.9 km/h (1:55 pm)
Wind Gust55.5 km/h (2:55 pm)
Weather ElementAverage
Visibility16.1 km
Wind DirectionS (182.1 °)

Weather ElementTotal
Precipitation---
Cooling Degree Days5.7 (Base 18.3)
Growing Degree Days14 (Base 10)
Averaged from 67 records on 18 June, 2014
WEATHER CONDITIONS BREAKOUT
WIND DIRECTION BREAKOUT
WEATHER BY HOUR - 18 JUNE, 2014
[ °F ]   °C
Local TimeTemperatureDewpointHumidityBarometerVisibilityWind DirectionWind SpeedGust SpeedPrecipitationEventsConditions
12:35 AM20 °C-2 °C23 %1014.6 hPa16.1 kmWest (260°)9.3 km/hClear
12:55 AM20 °C-2 °C23 %1014.6 hPa16.1 kmWSW (240°)7.4 km/hClear
1:15 AM20 °C-2 °C23 %1014.6 hPa16.1 kmWSW (240°)5.6 km/hClear
1:35 AM20 °C-2 °C23 %1014.6 hPa16.1 kmSSW (200°)13 km/hClear
1:55 AM20 °C-2 °C23 %1014.2 hPa16.1 kmSSW (200°)13 km/hClear
2:15 AM20 °C-1 °C24 %1014.2 hPa16.1 kmSouth (190°)16.7 km/hClear
2:35 AM20 °C0 °C26 %1014.2 hPa16.1 kmSSW (200°)22.2 km/h31.5 km/hClear
2:55 AM20 °C0 °C26 %1014.2 hPa16.1 kmSSW (210°)16.7 km/hClear
3:15 AM20 °C0 °C26 %1014.2 hPa16.1 kmSW (220°)7.4 km/hClear
3:35 AM19 °C0 °C28 %1014.2 hPa16.1 kmSW (220°)5.6 km/hClear
3:55 AM19 °C0 °C28 %1014.2 hPa16.1 kmWest (260°)9.3 km/hClear
4:15 AM19 °C0 °C28 %1014.2 hPa16.1 kmSSW (210°)5.6 km/hClear
4:35 AM19 °C0 °C28 %1014.6 hPa16.1 kmSW (220°)7.4 km/hClear
4:55 AM18 °C0 °C30 %1014.6 hPa16.1 kmSW (220°)7.4 km/hClear
5:15 AM18 °C0 °C30 %1014.9 hPa16.1 kmWSW (250°)7.4 km/hClear
5:35 AM18 °C0 °C30 %1015.2 hPa16.1 kmSW (220°)7.4 km/hClear
5:55 AM18 °C0 °C30 %1015.6 hPa16.1 kmSW (230°)7.4 km/hClear
6:15 AM20 °C0 °C26 %1015.6 hPa16.1 kmSouth (190°)5.6 km/hClear
6:35 AM20 °C0 °C26 %1015.6 hPa16.1 kmSSW (200°)7.4 km/hClear
7:15 AM22 °C0 °C23 %1015.6 hPa16.1 kmSE (140°)14.8 km/hClear
7:35 AM23 °C0 °C22 %1015.9 hPa16.1 kmSSE (150°)11.1 km/hClear
7:55 AM24 °C-1 °C19 %1015.9 hPa16.1 kmSSE (160°)22.2 km/h27.8 km/hClear
8:15 AM23 °C-2 °C19 %1015.9 hPa16.1 kmSouth (180°)25.9 km/h33.3 km/hClear
8:35 AM24 °C-2 °C18 %1016.6 hPa16.1 kmSouth (180°)22.2 km/h31.5 km/hScattered Clouds
8:55 AM24 °C-2 °C18 %1016.6 hPa16.1 kmSouth (170°)29.6 km/h35.2 km/hScattered Clouds
9:15 AM24 °C-2 °C18 %1016.6 hPa16.1 kmSouth (180°)22.2 km/h33.3 km/hMostly Cloudy
9:35 AM23 °C-2 °C19 %1016.6 hPa16.1 kmSSW (210°)29.6 km/h38.9 km/hScattered Clouds
9:55 AM26 °C-2 °C16 %1016.6 hPa16.1 kmSouth (180°)14.8 km/h37 km/hScattered Clouds
10:15 AM24 °C-1 °C19 %1016.6 hPa16.1 kmSSW (210°)27.8 km/h42.6 km/hMostly Cloudy
10:35 AM27 °C-1 °C16 %1016.6 hPa16.1 kmSouth (190°)20.4 km/h38.9 km/hScattered Clouds
11:15 AM27 °C-1 °C16 %1016.6 hPa16.1 kmSouth (180°)31.5 km/h44.4 km/hClear
11:35 AM26 °C-1 °C17 %1016.6 hPa16.1 kmSW (230°)16.7 km/h42.6 km/hClear
11:55 AM28 °C-1 °C15 %1016.6 hPa16.1 kmSouth (190°)14.8 km/h38.9 km/hClear
12:35 PM27 °C-1 °C16 %1016.6 hPa16.1 kmSSW (210°)20.4 km/h44.4 km/hClear
12:55 PM28 °C-1 °C15 %1016.3 hPa16.1 kmSSW (210°)22.2 km/h37 km/hClear
1:35 PM30 °C-1 °C13 %1016.3 hPa16.1 kmSSW (200°)33.3 km/h44.4 km/hClear
1:55 PM28 °C-1 °C15 %1015.6 hPa16.1 kmSSE (160°)38.9 km/h50.1 km/hClear
2:15 PM29 °C-1 °C14 %1015.9 hPa16.1 kmSSW (200°)22.2 km/h51.8 km/hClear
2:35 PM29 °C-1 °C14 %1015.9 hPa16.1 kmSouth (180°)29.6 km/h46.3 km/hClear
2:55 PM29 °C-1 °C14 %1015.6 hPa16.1 kmSouth (170°)38.9 km/h55.5 km/hClear
3:15 PM28 °C-1 °C15 %1015.9 hPa16.1 kmSouth (190°)27.8 km/h46.3 km/hClear
3:35 PM28 °C-1 °C15 %1015.6 hPa16.1 kmSW (220°)31.5 km/h44.4 km/hClear
3:55 PM29 °C0 °C15 %1015.2 hPa16.1 kmSouth (180°)27.8 km/h42.6 km/hClear
4:15 PM28 °C-1 °C15 %1015.6 hPa16.1 kmSSE (160°)29.6 km/h48.1 km/hClear
4:35 PM28 °C-1 °C15 %1015.6 hPa16.1 kmSSW (210°)20.4 km/h38.9 km/hClear
4:55 PM28 °C-1 °C15 %1015.6 hPa16.1 kmSSW (200°)25.9 km/h44.4 km/hClear
5:15 PM27 °C-2 °C15 %1015.6 hPa16.1 kmSouth (190°)27.8 km/h42.6 km/hClear
5:35 PM27 °C-2 °C15 %1015.6 hPa16.1 kmSSW (200°)29.6 km/h44.4 km/hClear
5:55 PM27 °C-2 °C15 %1015.6 hPa16.1 kmSSE (160°)29.6 km/h40.7 km/hClear
6:15 PM26 °C-2 °C16 %1015.6 hPa16.1 kmSouth (180°)25.9 km/h35.2 km/hClear
6:35 PM26 °C-2 °C16 %1015.9 hPa16.1 kmSouth (170°)27.8 km/h42.6 km/hClear
6:55 PM25 °C-2 °C17 %1015.9 hPa16.1 kmSouth (170°)31.5 km/h48.1 km/hClear
7:15 PM25 °C-2 °C17 %1016.3 hPa16.1 kmSouth (170°)29.6 km/h42.6 km/hClear
7:35 PM24 °C-3 °C17 %1016.6 hPa16.1 kmSouth (180°)27.8 km/h35.2 km/hClear
7:55 PM23 °C-4 °C16 %1016.6 hPa16.1 kmSouth (170°)16.7 km/h31.5 km/hClear
8:15 PM23 °C-4 °C16 %1016.9 hPa16.1 kmSouth (170°)18.5 km/h27.8 km/hClear
8:35 PM22 °C-4 °C17 %1017.3 hPa16.1 kmSouth (180°)9.3 km/hClear
8:55 PM22 °C-4 °C17 %1017.6 hPa16.1 kmSouth (190°)5.6 km/hClear
9:15 PM22 °C-4 °C17 %1017.9 hPa16.1 kmSSW (210°)5.6 km/hClear
9:35 PM22 °C-4 °C17 %1017.9 hPa16.1 kmSouth (190°)7.4 km/hClear
9:55 PM22 °C-4 °C17 %1017.9 hPa16.1 kmSouth (170°)7.4 km/hClear
10:15 PM21 °C-4 °C18 %1017.9 hPa16.1 kmSSE (160°)7.4 km/hClear
10:35 PM21 °C-4 °C18 %1018.3 hPa16.1 kmCalmClear
10:55 PM21 °C-4 °C18 %1018.3 hPa16.1 kmCalmClear
11:15 PM21 °C-4 °C18 %1018.3 hPa16.1 kmNNE (30°)5.6 km/hClear
11:35 PM20 °C-4 °C20 %1018.3 hPa16.1 kmNE (50°)13 km/hClear
11:55 PM20 °C-4 °C20 %1017.9 hPa16.1 kmNE (40°)14.8 km/hClear
Hourly data recorded from KSEZ, located 0 kilometers away from Rimrock, Arizona







STORIES FROM OUR PARTNERS